Wetterdaten: aktuell Freitag, 04.09.2026 09:17
Datum Zeit Temp. A. Feuchte A. Luftdruck Regen Wind Richtung Richtung Sonnenschein Regendauer Taupunkt Windchill
04.09.2026 09:17 18,8 °C 86 % 1018,1 hPa 0,0 mm 0,7 km/h (0 Bft) SO 145 ° 5 min 0 min 16,4 °C 18,8 °C
04.09.2026 09:12 18,2 °C 87 % 1018,2 hPa 0,0 mm 4,6 km/h (1 Bft) S-SO 155 ° 5 min 0 min 16,0 °C 18,2 °C
04.09.2026 09:07 18,1 °C 88 % 1018,2 hPa 0,0 mm 1,4 km/h (1 Bft) O-SO 120 ° 5 min 0 min 16,1 °C 18,1 °C
04.09.2026 09:02 17,8 °C 89 % 1018,3 hPa 0,0 mm 3,2 km/h (1 Bft) S-SW 205 ° 5 min 0 min 16,0 °C 17,8 °C
04.09.2026 08:57 17,9 °C 88 % 1018,3 hPa 0,0 mm 4,9 km/h (1 Bft) S-SO 150 ° 5 min 0 min 15,9 °C 17,9 °C
04.09.2026 08:52 17,7 °C 90 % 1018,3 hPa 0,0 mm 0,0 km/h (0 Bft) SO 125 ° 5 min 0 min 16,0 °C 17,7 °C
04.09.2026 08:47 17,4 °C 90 % 1019,4 hPa 0,0 mm 0,0 km/h (0 Bft) S-SO 155 ° 6 min 0 min 15,7 °C 17,4 °C
04.09.2026 08:42 17,4 °C 90 % 1019,4 hPa 0,0 mm 1,6 km/h (1 Bft) S-SO 165 ° 4 min 0 min 15,7 °C 17,4 °C
04.09.2026 08:37 17,4 °C 89 % 1019,4 hPa 0,0 mm 2,0 km/h (1 Bft) SO 130 ° 5 min 0 min 15,6 °C 17,4 °C
04.09.2026 08:32 17,7 °C 89 % 1018,3 hPa 0,0 mm 2,2 km/h (1 Bft) O 90 ° 6 min 0 min 15,9 °C 17,7 °C
04.09.2026 08:27 17,6 °C 89 % 1018,3 hPa 0,0 mm 2,9 km/h (1 Bft) SO 145 ° 5 min 0 min 15,8 °C 17,6 °C
04.09.2026 08:22 17,6 °C 89 % 1018,3 hPa 0,0 mm 1,8 km/h (1 Bft) O 95 ° 5 min 0 min 15,8 °C 17,6 °C
04.09.2026 08:17 17,7 °C 91 % 1018,3 hPa 0,0 mm 0,0 km/h (0 Bft) O 85 ° 5 min 0 min 16,2 °C 17,7 °C
04.09.2026 08:12 17,2 °C 94 % 1018,4 hPa 0,0 mm 0,5 km/h (0 Bft) O-NO 65 ° 5 min 0 min 16,2 °C 17,2 °C
04.09.2026 08:07 16,7 °C 95 % 1018,5 hPa 0,0 mm 0,0 km/h (0 Bft) S-SO 155 ° 5 min 0 min 15,9 °C 16,7 °C
04.09.2026 08:02 16,3 °C 96 % 1018,6 hPa 0,0 mm 0,0 km/h (0 Bft) S-SO 155 ° 6 min 0 min 15,7 °C 16,3 °C
04.09.2026 07:57 15,8 °C 96 % 1018,7 hPa 0,0 mm 0,0 km/h (0 Bft) S-SO 155 ° 5 min 0 min 15,2 °C 15,8 °C
04.09.2026 07:52 15,5 °C 96 % 1018,7 hPa 0,0 mm 0,0 km/h (0 Bft) S-SO 155 ° 5 min 0 min 14,9 °C 15,5 °C
04.09.2026 07:47 15,2 °C 96 % 1019,8 hPa 0,0 mm 0,0 km/h (0 Bft) S-SO 165 ° 5 min 0 min 14,6 °C 15,2 °C
04.09.2026 07:42 15,0 °C 97 % 1019,9 hPa 0,0 mm 0,0 km/h (0 Bft) S-SO 160 ° 4 min 0 min 14,5 °C 15,0 °C
04.09.2026 07:37 15,0 °C 97 % 1019,9 hPa 0,0 mm 0,2 km/h (0 Bft) S-SO 155 ° 4 min 0 min 14,5 °C 15,0 °C
04.09.2026 07:32 14,8 °C 97 % 1019,9 hPa 0,0 mm 0,0 km/h (0 Bft) N-NW 335 ° 6 min 0 min 14,3 °C 14,8 °C
04.09.2026 07:27 14,6 °C 97 % 1020,0 hPa 0,0 mm 0,0 km/h (0 Bft) N-NW 330 ° 5 min 0 min 14,1 °C 14,6 °C
04.09.2026 07:22 14,5 °C 97 % 1020,0 hPa 0,0 mm 0,0 km/h (0 Bft) N-NW 335 ° 5 min 0 min 14,0 °C 14,5 °C
04.09.2026 07:17 14,3 °C 97 % 1020,0 hPa 0,0 mm 0,0 km/h (0 Bft) N-NW 335 ° 0 min 0 min 13,8 °C 14,3 °C
04.09.2026 07:12 14,2 °C 97 % 1020,0 hPa 0,0 mm 0,0 km/h (0 Bft) N-NW 335 ° 0 min 0 min 13,7 °C 14,2 °C
04.09.2026 07:07 14,2 °C 97 % 1020,0 hPa 0,0 mm 0,0 km/h (0 Bft) N 350 ° 0 min 0 min 13,7 °C 14,2 °C
04.09.2026 07:02 14,2 °C 97 % 1019,0 hPa 0,0 mm 0,0 km/h (0 Bft) S 180 ° 0 min 0 min 13,7 °C 14,2 °C
04.09.2026 06:57 14,2 °C 97 % 1019,0 hPa 0,0 mm 0,0 km/h (0 Bft) S 180 ° 0 min 0 min 13,7 °C 14,2 °C
04.09.2026 06:52 14,2 °C 97 % 1019,0 hPa 0,0 mm 0,0 km/h (0 Bft) S 180 ° 0 min 0 min 13,7 °C 14,2 °C
04.09.2026 06:47 14,3 °C 97 % 1020,0 hPa 0,0 mm 0,0 km/h (0 Bft) S 180 ° 0 min 0 min 13,8 °C 14,3 °C
04.09.2026 06:42 14,2 °C 97 % 1020,0 hPa 0,0 mm 0,0 km/h (0 Bft) S 180 ° 0 min 0 min 13,7 °C 14,2 °C
04.09.2026 06:37 14,2 °C 97 % 1020,0 hPa 0,0 mm 0,0 km/h (0 Bft) O-SO 105 ° 0 min 0 min 13,7 °C 14,2 °C
04.09.2026 06:32 14,2 °C 97 % 1019,0 hPa 0,0 mm 0,0 km/h (0 Bft) NW 325 ° 0 min 0 min 13,7 °C 14,2 °C
04.09.2026 06:27 14,1 °C 97 % 1019,0 hPa 0,0 mm 0,0 km/h (0 Bft) N-NO 30 ° 0 min 0 min 13,6 °C 14,1 °C
04.09.2026 06:22 14,0 °C 97 % 1019,0 hPa 0,0 mm 0,0 km/h (0 Bft) SO 135 ° 0 min 0 min 13,5 °C 14,0 °C
04.09.2026 06:17 14,0 °C 97 % 1020,1 hPa 0,0 mm 0,0 km/h (0 Bft) W-NW 290 ° 0 min 0 min 13,5 °C 14,0 °C
04.09.2026 06:12 14,0 °C 97 % 1020,1 hPa 0,0 mm 0,0 km/h (0 Bft) N-NW 340 ° 0 min 0 min 13,5 °C 14,0 °C
04.09.2026 06:07 14,0 °C 97 % 1020,1 hPa 0,0 mm 0,0 km/h (0 Bft) NW 325 ° 0 min 0 min 13,5 °C 14,0 °C
04.09.2026 06:02 14,1 °C 97 % 1020,1 hPa 0,0 mm 0,0 km/h (0 Bft) W-NW 295 ° 0 min 0 min 13,6 °C 14,1 °C
04.09.2026 05:57 14,0 °C 97 % 1020,1 hPa 0,0 mm 0,0 km/h (0 Bft) NW 325 ° 0 min 0 min 13,5 °C 14,0 °C
04.09.2026 05:52 14,0 °C 97 % 1020,1 hPa 0,0 mm 0,0 km/h (0 Bft) W 280 ° 0 min 0 min 13,5 °C 14,0 °C
04.09.2026 05:47 13,9 °C 97 % 1019,0 hPa 0,0 mm 0,0 km/h (0 Bft) W-NW 295 ° 0 min 0 min 13,4 °C 13,9 °C
04.09.2026 05:42 13,8 °C 97 % 1019,1 hPa 0,0 mm 0,4 km/h (0 Bft) N 355 ° 0 min 0 min 13,3 °C 13,8 °C
04.09.2026 05:37 14,1 °C 97 % 1019,0 hPa 0,0 mm 0,0 km/h (0 Bft) N-NW 330 ° 0 min 0 min 13,6 °C 14,1 °C
04.09.2026 05:32 14,0 °C 97 % 1020,1 hPa 0,0 mm 0,0 km/h (0 Bft) W 265 ° 0 min 0 min 13,5 °C 14,0 °C
04.09.2026 05:27 13,9 °C 97 % 1020,1 hPa 0,0 mm 0,0 km/h (0 Bft) NO 50 ° 0 min 0 min 13,4 °C 13,9 °C
04.09.2026 05:22 14,0 °C 97 % 1020,1 hPa 0,0 mm 0,0 km/h (0 Bft) SW 225 ° 0 min 0 min 13,5 °C 14,0 °C
04.09.2026 05:17 13,8 °C 97 % 1019,1 hPa 0,0 mm 0,0 km/h (0 Bft) S 185 ° 0 min 0 min 13,3 °C 13,8 °C
_ Min-Zeit 05:17 15:32 16:02 - 20:02 - - - - 15:17 05:17
Minimum _ 13,8 °C 46 % 1016,8 hPa - 0,0 km/h (0 Bft) - - - - 12,7 °C 13,8 °C
_ Max-Zeit 16:02 04:02 22:22 18:07 13:17 - - 10:02 18:07 09:17 16:02
Maximum _ 26,2 °C 97 % 1020,8 hPa 0,3 mm 31,6 km/h
S-SW (5 Bft)
- - 7 min 5 min 16,4 °C 26,2 °C
Durchschnitt _ 18,7 °C 79 % 1019,2 hPa #2,1 mm 6,5 km/h (2 Bft) NW - #2:01 h #0 min. 14,5 °C 18,7 °C